Location: *
(37.5724°S, 58.0067°E)
Time: 18:58:33
(UTC+00:00)

N. Korean satellite - Pass Details

Date: 30 November 2020
Orbit: 453 x 502 km, 97.2° (Epoch: 16 January)

Event Time Altitude Azimuth Distance (km) Brightness Sun altitude
Rises 23:49:03 0° 54° (NE) 2,602 10.5 -9.4°
Reaches altitude 10° 23:51:55 10° 79° (E) 1,724 10.0 -8.9°
Maximum altitude 23:53:56 14° 112° (ESE) 1,481 10.4 -8.6°
Drops below altitude 10° 23:55:57 10° 145° (SE) 1,730 10.7 -8.3°
Sets 23:58:50 0° 170° (S) 2,616 11.0 -7.8°
